GW1431 Weather Reports


time (UTC)temp
C
wind
direction
speed
KPH
gust
KPH
rain 1hr
cm
rain 24hr
cm
rain mn
cm
humidity
%
barometer
mb
20260507071953 10 355 0.0 3.2 0.13 0.58 0.15 91 1010.7
20260507071448 10 323 0.0 3.2 0.13 0.58 0.15 91 1010.8
20260507070947 10 344 0.0 3.2 0.13 0.58 0.15 91 1010.8
20260507070447 10 317 0.0 3.2 0.13 0.58 0.15 90 1010.9
20260507065947 10 309 0.0 1.6 0.13 0.58 0.15 90 1011.0
20260507065445 10 309 0.0 1.6 0.13 0.58 0.15 90 1010.8
20260507064946 10 5 0.0 3.2 0.10 0.56 0.15 90 1010.9
20260507064444 10 327 0.0 3.2 0.10 0.56 0.13 89 1011.0
20260507063942 10 122 0.0 1.6 0.05 0.51 0.08 89 1011.1
20260507063442 10 72 0.0 3.2 0.03 0.48 0.05 89 1010.9
20260507062938 10 73 0.0 6.4 0.03 0.48 0.05 88 1010.9
20260507062439 10 304 1.6 6.4 0.03 0.48 0.05 88 1011.0
20260507061937 11 300 3.2 9.7 0.00 0.46 0.03 87 1011.1
20260507061437 11 303 3.2 9.7 0.00 0.46 0.03 87 1011.1
20260507060937 11 287 1.6 4.8 0.00 0.46 0.03 87 1011.1
20260507060431 11 296 1.6 6.4 0.00 0.46 0.03 87 1010.8
20260507055925 11 305 1.6 6.4 0.00 0.46 0.03 87 1010.8
20260507055418 11 309 1.6 4.8 0.00 0.46 0.03 87 1010.9
20260507054913 11 299 1.6 6.4 0.00 0.46 0.03 86 1010.9
20260507054408 11 319 3.2 6.4 0.00 0.46 0.03 87 1010.9
20260507053355 11 315 3.2 8.0 0.00 0.46 0.03 87 1010.8
20260507052849 11 29 1.6 6.4 0.00 0.46 0.03 88 1010.8
20260507052343 11 302 1.6 3.2 0.00 0.46 0.03 88 1010.8
20260507051840 11 38 0.0 3.2 0.03 0.46 0.03 88 1010.8
20260507051341 11 348 0.0 3.2 0.03 0.46 0.03 88 1010.8
20260507050841 11 313 1.6 6.4 0.03 0.46 0.03 87 1011.1
20260507050341 11 309 1.6 6.4 0.03 0.46 0.03 88 1011.1
20260507045839 12 318 1.6 6.4 0.03 0.46 0.03 88 1010.8
20260507044838 12 297 3.2 8.0 0.03 0.46 0.03 89 1010.9
20260507044336 12 304 3.2 8.0 0.03 0.46 0.03 89 1010.8
20260507043337 12 311 1.6 3.2 0.03 0.46 0.03 89 1010.8
20260507042836 12 311 1.6 4.8 0.05 0.46 0.03 89 1010.8
20260507041834 12 298 1.6 4.8 0.05 0.43 0.00 88 1010.6
20260507040834 12 306 3.2 8.0 0.08 0.43 0.00 88 1010.5
20260507040334 12 302 3.2 8.0 0.10 0.43 0.00 88 1010.6
20260507035834 12 347 1.6 4.8 0.10 0.43 0.43 88 1010.5
20260507035329 12 306 1.6 12.9 0.10 0.43 0.43 88 1010.5
20260507034832 12 281 3.2 12.9 0.10 0.43 0.43 88 1010.0
20260507034329 12 298 4.8 12.9 0.10 0.43 0.43 88 1010.3
20260507033829 12 321 3.2 12.9 0.10 0.43 0.43 88 1010.1
20260507033328 13 306 1.6 4.8 0.10 0.43 0.43 89 1010.1
20260507032829 13 320 1.6 4.8 0.08 0.41 0.41 88 1010.0
20260507032329 13 316 1.6 4.8 0.08 0.41 0.41 88 1010.4
20260507031830 13 311 1.6 4.8 0.05 0.38 0.41 87 1010.3
20260507031330 13 302 1.6 4.8 0.03 0.36 0.36 87 1010.4
20260507030826 13 315 1.6 8.0 0.00 0.33 0.36 86 1010.2
20260507030326 13 13 1.6 8.0 0.00 0.33 0.33 85 1010.2
20260507025825 14 324 3.2 12.9 0.00 0.33 0.33 84 1009.9
20260507025326 14 294 4.8 12.9 0.00 0.33 0.33 83 1010.0
20260507024826 14 321 3.2 11.3 0.00 0.33 0.33 83 1010.1
20260507024325 14 347 3.2 11.3 0.03 0.33 0.33 83 1010.2
20260507023826 15 302 3.2 9.7 0.03 0.33 0.33 83 1010.2
20260507023326 15 347 3.2 12.9 0.03 0.33 0.33 84 1010.0
20260507022827 15 315 3.2 12.9 0.03 0.33 0.33 84 1010.1
20260507021814 15 295 3.2 11.3 0.03 0.33 0.33 86 1009.8
20260507021308 15 342 3.2 11.3 0.03 0.33 0.33 87 1009.7
20260507020308 15 296 3.2 11.3 0.03 0.33 0.33 87 1009.7
20260507015807 15 336 1.6 4.8 0.03 0.33 0.33 87 1010.0
20260507014804 15 294 3.2 6.4 0.03 0.33 0.33 86 1009.7
20260507014303 16 342 3.2 6.4 0.00 0.30 0.30 85 1009.6
20260507013804 16 302 3.2 11.3 0.00 0.30 0.30 85 1010.0
20260507013303 16 296 3.2 11.3 0.00 0.30 0.30 85 1009.9
20260507012802 16 302 4.8 11.3 0.00 0.30 0.30 85 1009.8
20260507012305 16 300 4.8 11.3 0.00 0.30 0.30 84 1009.9
20260507011803 16 319 3.2 6.4 0.00 0.30 0.30 83 1009.8
20260507011300 16 324 3.2 8.0 0.00 0.30 0.30 83 1010.1
20260507010801 16 304 3.2 8.0 0.00 0.30 0.30 82 1010.2
20260507010258 16 311 4.8 8.0 0.00 0.30 0.30 82 1010.0
20260507005758 16 333 4.8 9.7 0.00 0.30 0.30 82 1010.0
20260507005258 17 302 4.8 14.5 0.00 0.30 0.30 83 1009.9
20260507004758 17 302 4.8 14.5 0.00 0.30 0.30 83 1009.8
20260507004259 17 295 4.8 8.0 0.00 0.30 0.30 84 1009.9
20260507003246 17 284 3.2 11.3 0.00 0.30 0.30 88 1009.6
20260507002740 17 310 1.6 3.2 0.00 0.30 0.30 89 1009.4
20260507001221 17 271 0.0 1.6 0.00 0.30 0.30 89 1009.1
20260507000715 17 271 0.0 1.6 0.00 0.30 0.30 89 1009.0
20260506235157 18 271 0.0 1.6 0.00 0.30 0.30 87 1008.4
20260506234651 18 271 0.0 1.6 0.00 0.30 0.30 87 1008.4
20260506234145 18 271 0.0 3.2 0.00 0.30 0.30 86 1008.3
20260506233640 18 271 0.0 3.2 0.00 0.30 0.30 86 1008.4
20260506232627 18 135 0.0 0.0 0.00 0.30 0.30 86 1008.3
20260506232121 18 135 0.0 1.6 0.00 0.30 0.30 86 1008.2
20260506231110 18 135 0.0 0.0 0.00 0.30 0.30 86 1008.3
20260506230058 18 135 0.0 1.6 0.00 0.30 0.30 85 1008.2
20260506225551 18 135 0.0 3.2 0.00 0.30 0.30 85 1008.3
20260506225044 18 135 0.0 3.2 0.00 0.30 0.30 85 1008.2
20260506224543 18 135 0.0 3.2 0.00 0.30 0.30 85 1008.2
20260506224033 18 135 0.0 3.2 0.00 0.30 0.30 85 1008.2
20260506223528 18 135 0.0 1.6 0.00 0.30 0.30 85 1008.2
20260506223021 18 135 0.0 1.6 0.00 0.30 0.30 85 1008.1
20260506222515 18 135 0.0 1.6 0.00 0.30 0.30 85 1008.2
20260506221503 18 135 0.0 1.6 0.00 0.30 0.30 85 1008.2
20260506220957 18 135 0.0 1.6 0.00 0.30 0.30 85 1008.1
20260506215945 18 135 0.0 1.6 0.00 0.30 0.30 85 1008.2
20260506215440 18 135 0.0 1.6 0.00 0.30 0.30 85 1008.3
20260506214934 18 142 0.0 1.6 0.00 0.30 0.30 85 1008.1
20260506214427 18 153 0.0 3.2 0.00 0.30 0.30 85 1008.2
20260506213921 18 153 1.6 3.2 0.00 0.30 0.30 85 1008.2
20260506213415 18 180 1.6 3.2 0.00 0.30 0.30 85 1008.0
20260506212909 18 180 0.0 3.2 0.00 0.30 0.30 85 1007.9
20260506212404 18 180 1.6 3.2 0.00 0.30 0.30 84 1007.7
20260506210846 18 180 1.6 4.8 0.00 0.30 0.30 84 1007.5
20260506205834 18 137 1.6 3.2 0.00 0.30 0.30 84 1007.6
20260506205328 18 137 1.6 3.2 0.00 0.30 0.30 83 1007.5
20260506204827 18 163 1.6 6.4 0.00 0.30 0.30 83 1007.6
20260506204327 18 157 1.6 6.4 0.00 0.30 0.30 84 1007.5
20260506203827 18 167 1.6 6.4 0.00 0.30 0.30 83 1007.5
20260506202825 18 74 1.6 4.8 0.00 0.30 0.30 83 1007.7
20260506202326 18 148 1.6 4.8 0.00 0.30 0.30 84 1007.6
20260506201823 18 136 1.6 3.2 0.00 0.30 0.30 85 1007.5
20260506201322 18 107 1.6 3.2 0.00 0.30 0.30 85 1007.5
20260506200821 18 119 1.6 8.0 0.00 0.30 0.30 85 1007.5
20260506200323 18 166 1.6 8.0 0.00 0.30 0.30 84 1007.6
20260506195821 18 165 1.6 4.8 0.00 0.30 0.30 84 1007.6
20260506195322 18 184 1.6 4.8 0.00 0.30 0.30 83 1007.6
20260506194822 18 161 1.6 8.0 0.00 0.30 0.30 83 1007.6
20260506194320 18 169 1.6 8.0 0.00 0.30 0.30 84 1007.6
20260506193819 18 163 3.2 6.4 0.00 0.30 0.30 83 1007.5
20260506193321 18 184 3.2 6.4 0.00 0.30 0.30 83 1007.5
20260506192814 18 173 3.2 6.4 0.00 0.30 0.30 84 1007.5
20260506192315 18 162 1.6 6.4 0.00 0.30 0.30 84 1007.6
20260506191815 18 154 3.2 9.7 0.00 0.30 0.30 85 1007.6
20260506191314 18 171 3.2 9.7 0.00 0.30 0.30 84 1007.6
20260506190814 18 184 3.2 8.0 0.00 0.30 0.30 85 1007.7
20260506190314 18 188 4.8 9.7 0.00 0.30 0.30 84 1007.8
20260506185813 18 159 4.8 9.7 0.00 0.30 0.30 84 1007.7
20260506185314 18 198 4.8 9.7 0.00 0.30 0.30 84 1007.7
20260506184315 18 155 4.8 12.9 0.00 0.30 0.30 85 1007.8
20260506183309 17 169 4.8 12.9 0.00 0.30 0.30 86 1007.9
20260506182809 17 172 4.8 11.3 0.00 0.30 0.30 86 1007.9
20260506182311 17 144 4.8 11.3 0.00 0.30 0.30 87 1007.9
20260506181811 17 173 4.8 11.3 0.00 0.30 0.30 87 1007.9
20260506181310 17 171 3.2 8.0 0.00 0.30 0.30 88 1008.0
20260506180812 16 181 3.2 8.0 0.00 0.30 0.30 88 1008.0
20260506180310 16 88 4.8 9.7 0.00 0.30 0.30 88 1008.2
20260506175812 16 169 4.8 9.7 0.00 0.30 0.30 88 1008.2
20260506174812 16 204 3.2 8.0 0.00 0.30 0.30 89 1008.3
20260506174313 16 170 4.8 12.9 0.00 0.30 0.30 89 1008.3
20260506173809 16 189 4.8 12.9 0.00 0.30 0.30 89 1008.3
20260506173309 16 202 4.8 12.9 0.00 0.30 0.30 89 1008.2
20260506172807 16 165 4.8 12.9 0.00 0.30 0.30 89 1008.3
20260506172307 16 196 4.8 11.3 0.00 0.30 0.30 89 1008.3
20260506171304 15 184 4.8 14.5 0.00 0.30 0.30 90 1008.3
20260506170805 15 201 4.8 11.3 0.00 0.30 0.30 90 1008.3
20260506170305 15 190 6.4 14.5 0.00 0.30 0.30 90 1008.3
20260506165805 15 167 4.8 14.5 0.00 0.30 0.30 90 1008.3
20260506165305 15 155 4.8 14.5 0.00 0.30 0.30 91 1008.2
20260506164802 15 205 6.4 14.5 0.00 0.30 0.30 91 1008.2
20260506164300 15 200 6.4 12.9 0.00 0.30 0.30 91 1008.3
20260506163259 15 211 4.8 14.5 0.00 0.30 0.30 91 1008.3
20260506162758 15 196 6.4 14.5 0.00 0.30 0.30 91 1008.2
20260506161754 15 171 4.8 16.1 0.00 0.30 0.30 91 1008.5
20260506160753 15 189 8.0 16.1 0.03 0.30 0.30 91 1008.5
20260506160253 15 188 8.0 16.1 0.05 0.30 0.30 91 1008.5
20260506155754 15 212 8.0 14.5 0.05 0.30 0.30 92 1008.6
20260506155254 15 205 8.0 16.1 0.08 0.30 0.30 92 1008.5
20260506154753 15 197 6.4 16.1 0.08 0.30 0.30 92 1008.4
20260506154253 15 176 6.4 16.1 0.10 0.30 0.30 92 1008.3
20260506153754 15 174 8.0 16.1 0.10 0.30 0.30 92 1008.3
20260506153255 15 204 8.0 16.1 0.10 0.30 0.30 92 1008.4
20260506152242 15 171 8.0 20.9 0.10 0.30 0.30 92 1008.5
20260506151737 15 175 6.4 20.9 0.10 0.30 0.30 92 1008.4
20260506151230 15 180 6.4 12.9 0.08 0.28 0.28 92 1008.7
20260506150723 15 177 6.4 12.9 0.08 0.28 0.28 92 1009.0
20260506150218 15 169 4.8 12.9 0.05 0.25 0.25 92 1009.2
20260506145712 15 195 4.8 11.3 0.08 0.25 0.25 92 1009.4
20260506145212 15 173 6.4 17.7 0.05 0.23 0.23 91 1009.4
20260506144709 15 184 8.0 17.7 0.08 0.23 0.23 91 1009.4
20260506144209 15 190 8.0 16.1 0.05 0.20 0.20 91 1009.2
20260506143709 15 192 8.0 14.5 0.08 0.20 0.20 91 1009.3
20260506143209 15 190 8.0 14.5 0.08 0.20 0.20 91 1009.2
20260506142710 15 167 8.0 16.1 0.08 0.20 0.20 91 1009.1
20260506141709 15 190 9.7 25.7 0.10 0.20 0.20 91 1009.2
20260506141209 15 193 9.7 25.7 0.10 0.20 0.20 91 1009.0
20260506140710 15 202 6.4 14.5 0.13 0.20 0.20 91 1008.8
20260506140210 15 188 6.4 11.3 0.15 0.20 0.20 91 1008.8
20260506135710 15 190 8.0 12.9 0.13 0.18 0.18 91 1008.8
20260506134709 15 202 6.4 14.5 0.10 0.15 0.15 90 1009.3
20260506134210 15 187 6.4 14.5 0.13 0.15 0.15 90 1009.5
20260506133711 15 191 4.8 12.9 0.10 0.13 0.15 90 1009.5
20260506133212 15 173 4.8 11.3 0.13 0.13 0.13 90 1009.4
20260506132705 15 174 4.8 8.0 0.13 0.13 0.13 90 1009.4
20260506132159 15 186 4.8 9.7 0.13 0.13 0.13 90 1009.4
20260506131653 15 170 4.8 9.7 0.10 0.10 0.10 89 1009.4
20260506131147 15 178 4.8 9.7 0.10 0.10 0.10 89 1009.4
20260506130641 15 188 4.8 8.0 0.08 0.08 0.08 88 1009.5
20260506130135 15 159 3.2 8.0 0.05 0.05 0.05 88 1009.4
20260506125629 15 173 4.8 9.7 0.05 0.05 0.05 87 1009.4
20260506125123 15 180 4.8 11.3 0.05 0.05 0.05 87 1009.4
20260506124617 15 166 3.2 11.3 0.03 0.03 0.05 86 1009.3
20260506124114 15 198 3.2 8.0 0.03 0.03 0.03 86 1009.4
20260506123613 16 188 3.2 9.7 0.03 0.03 0.03 85 1009.4
20260506123111 16 172 3.2 9.7 0.00 0.00 0.00 84 1009.4
20260506122610 16 174 4.8 14.5 0.00 0.00 0.00 83 1009.5
20260506122112 16 167 4.8 14.5 0.00 0.00 0.00 82 1009.6
20260506121610 16 173 3.2 9.7 0.00 0.00 0.00 81 1009.6
20260506121109 16 182 4.8 9.7 0.00 0.00 0.00 80 1009.7
20260506120610 17 173 4.8 9.7 0.00 0.00 0.00 79 1009.8
20260506120109 17 176 4.8 11.3 0.00 0.00 0.00 77 1009.8
20260506115610 17 181 4.8 11.3 0.00 0.00 0.00 77 1009.8
20260506114608 17 179 4.8 11.3 0.00 0.00 0.00 77 1009.7
20260506114109 17 169 4.8 11.3 0.00 0.00 0.00 77 1009.4
20260506113606 17 173 4.8 14.5 0.00 0.00 0.00 77 1009.4
20260506113104 17 184 4.8 14.5 0.00 0.00 0.00 76 1009.3
20260506112603 17 174 6.4 12.9 0.00 0.00 0.00 76 1009.2
20260506111602 17 184 4.8 14.5 0.00 0.00 0.00 76 1009.2
20260506111102 17 196 4.8 12.9 0.00 0.00 0.00 75 1009.3
20260506110602 17 198 6.4 16.1 0.00 0.00 0.00 75 1009.2
20260506105602 17 168 6.4 17.7 0.00 0.00 0.00 74 1009.0
20260506105103 17 175 6.4 14.5 0.00 0.00 0.00 73 1009.0
20260506104603 17 167 6.4 11.3 0.00 0.00 0.00 73 1008.8
20260506104103 17 183 6.4 14.5 0.00 0.00 0.00 73 1008.6
20260506103602 17 205 6.4 17.7 0.00 0.00 0.00 72 1008.7
20260506102602 17 169 6.4 12.9 0.00 0.00 0.00 72 1008.6
20260506102101 17 176 6.4 12.9 0.00 0.00 0.00 72 1008.5
20260506101600 17 196 6.4 12.9 0.00 0.00 0.00 72 1008.5
20260506101102 17 178 6.4 12.9 0.00 0.00 0.00 72 1008.6
20260506100602 17 171 6.4 12.9 0.00 0.00 0.00 72 1008.6
20260506100058 17 173 6.4 14.5 0.00 0.00 0.00 71 1008.6
20260506095558 17 182 8.0 17.7 0.00 0.00 0.00 71 1008.6
20260506095057 17 190 6.4 17.7 0.00 0.00 0.00 71 1008.6
20260506094058 17 180 6.4 11.3 0.00 0.00 0.00 70 1008.6
20260506093556 17 178 6.4 11.3 0.00 0.00 0.00 70 1008.5
20260506093057 17 194 4.8 11.3 0.00 0.00 0.00 69 1008.6
20260506092558 18 163 4.8 9.7 0.00 0.00 0.00 69 1008.4
20260506091557 18 185 6.4 12.9 0.00 0.00 0.00 67 1008.6
20260506090558 18 175 6.4 14.5 0.00 0.00 0.00 67 1008.5
20260506085557 18 150 4.8 12.9 0.00 0.00 0.00 66 1008.7
20260506085056 18 207 4.8 11.3 0.00 0.00 0.00 66 1008.8
20260506084557 18 187 6.4 12.9 0.00 0.00 0.00 66 1008.8
20260506084058 18 165 6.4 12.9 0.00 0.00 0.00 66 1009.0
20260506083558 18 194 6.4 14.5 0.00 0.00 0.00 65 1009.0
20260506083056 18 180 6.4 16.1 0.00 0.00 0.00 65 1009.0
20260506082557 18 190 6.4 16.1 0.00 0.00 0.00 65 1009.0
20260506082056 18 187 6.4 14.5 0.00 0.00 0.00 64 1008.7
20260506081558 19 199 8.0 14.5 0.00 0.00 0.00 64 1008.8
20260506081058 19 186 6.4 14.5 0.00 0.00 0.00 64 1008.8
20260506080557 19 204 4.8 16.1 0.00 0.00 0.00 64 1008.8
20260506073057 19 198 6.4 19.3 0.00 0.00 0.00 62 1009.0
20260506072057 19 180 6.4 14.5 0.00 0.00 0.00 62 1009.1